ATLAS 5 CENTAUR DEB, 43987

Orbit data source: Space-Track

ATLAS 5 CENTAUR DEB, 43987 is space debris in HEO originally from a launch on Wed, 17 Sep 2014 UTC launched from the Air Force Eastern Test Range (AFETR). Debris objects in space refer to the collection of defunct objects orbiting the Earth. Examples of debris include non-operational satellites, rocket bodies, and fragments generated from explosions, collisions, or faulty payload assembly.

Loading next visibility...
Identifier
43987, 2014-055AS
Orbit
HEO
Country
Flag of USUS
Related business
Flag of USUnited Launch Alliance/Lockheed Martin (US)
Manufacturer
Unknown
Mission
Spacecraft
Bus & Motor
Unknown
Mass
Unknown
Launch date (UTC)
2014-09-17 (11 years ago)
Launch vehicle
Unknown
Launch site
Air Force Eastern Test Range (AFETR)
Object type
Payload
Rocket body
Debris
Shape & HBR
Unknown shape, 1.1 m
Radar Cross Section
Small (<0.1 m²)

Expand to show TLE details & history
Last TLE update: 5 days ago

TLE from 5 days ago
0 ATLAS 5 CENTAUR DEB
1 43987U 14055AS  25336.24667235  .00000012  00000-0  00000-0 0  9993
2 43987  19.6635 164.9402 5016360 125.3219 292.5109  1.84092968 48763
Epoch: 2025-12-02T05:55Z
TLE epoch observation values (Epoch: 2025-12-02T05:55:12.491Z)
Latitude
-0.00004°
Longitude
4.8837°
Altitude
23,209.7 km
Speed
3.574 km/s
True Right ascension
11h 00m 04s
True Declination
0° 00' 00"
Sunlit
Object was in daylight at epoch
Visualization orbit readout
Latitude
Unknown
Longitude
Unknown
Altitude
Unknown
Speed
Unknown
Apparent Right ascension
Unknown
Apparent Declination
Unknown
Sunlit
N/A
Visualization observer readout
Local Sidereal Time
12:29:14
Azimuth
Unknown
Elevation
Unknown
Doppler factor
Unknown
Orbital elements
Apogee altitude
35,853.67 km
Perigee altitude
7,637.784 km
Semi-major axis
28,123.864 km
Eccentricity
0.50164
Inclination
19.6635°
RAAN
164.9402°
Arg. of periapsis
125.3219°
True anomaly
234.77566°
Mean anomaly
292.5109°
Eccentric anomaly
263.93039°
Mean motion
0.46018 °/min
Orbital period
782.3 mins
BSTAR
0
Loading maneuver chart data...
Computing Atmospheric mass density...

Documentation

Showing up to 5 results
|